[[{"header":{"parameterUnit":"m.s-1","parameterCategory":1,"la1":30.2991,"la2":30.254,"lo1":-89.0895,"lo2":-89.0444,"dy":0.0017,"dx":0.0017,"nx":28,"ny":28,"refTime":"2026-01-10T09:00:00:Z","depth":0,"parameterNumber":2,"parameterNumberName":"U-component_of_WINDS"},"data":[0,0,0,0,0,0,0,0,0,0,0,0,0,0,0,0,0,0,0,0,0,0,0,0,0,0,0,0,0,0,0,0,0,0,0,0,0,0,0,0,0,0,0,0,0,0,0,0,0,0,0,0,0,0,0,0,0,0,1.2718,1.2718,0,1.2722,1.2722,1.2722,1.2718,1.2718,1.2718,1.2718,1.272,1.272,1.272,0,0,0,0,0,0,0,0,0,0,0,0,0,1.2707,1.2708,1.2718,1.2718,1.2718,1.2722,1.2722,1.2722,1.2718,1.2718,1.2718,1.2717,1.272,1.272,1.272,0,0,0,0,0,0,0,0,0,0,0,0,0,1.2712,1.2708,1.2718,1.2717,1.2717,1.2722,1.2722,1.2722,1.2718,1.2718,1.2718,1.2717,1.272,1.272,1.272,1.2727,0,0,1.2721,1.2721,0,0,0,0,0,0,0,0,1.2711,1.2712,1.2717,1.2717,1.2717,1.2719,1.2719,1.2723,1.2718,1.2717,1.2718,1.2717,1.272,1.272,1.2721,1.2727,1.2727,1.2721,1.2722,1.2722,1.2722,0,0,0,0,0,0,0,1.2711,1.2712,1.2719,1.2717,1.2717,1.2716,1.2716,1.272,1.272,1.2717,1.2717,1.2718,1.272,1.2721,1.2721,1.2727,1.2721,1.2722,1.2722,1.2722,1.2739,1.274,0,0,0,0,0,0,1.2711,1.2712,1.2719,1.272,1.2713,1.2716,1.2717,1.2719,1.272,1.272,1.2718,1.2718,1.2721,1.2721,1.2721,1.2729,1.2722,1.2722,1.2722,1.2739,1.2739,1.274,0,0,0,0,0,0,1.2711,1.2712,1.2719,1.2716,1.2716,1.2717,1.2719,1.2719,1.272,1.272,1.272,1.2719,1.272,1.2721,1.2726,1.2729,1.2722,1.2722,1.2739,1.2739,1.2739,1.2745,0,0,0,0,0,0,1.271,1.2712,1.2714,1.2716,1.2717,1.2724,1.2719,1.2719,1.2721,1.272,1.2721,1.2721,1.272,1.2725,1.2726,1.273,1.2723,1.2738,1.2739,1.2739,1.2745,1.2746,1.2747,0,0,0,0,0,1.271,1.2715,1.2714,1.2715,1.2719,1.2724,1.2724,1.2723,1.2721,1.2723,1.2724,1.2721,1.2729,1.2726,1.2727,1.273,1.2738,1.2739,1.2739,1.2744,1.2745,1.2747,0,0,0,0,0,0,1.2712,1.2715,1.2714,1.2719,1.2722,1.2723,1.2726,1.2725,1.2727,1.2726,1.2725,1.2725,1.2731,1.2731,1.2727,1.2737,1.2733,1.2734,1.2737,1.2738,1.2739,1.2738,1.2723,0,0,0,0,0,1.2714,1.2717,1.2719,1.2724,1.2725,1.2725,1.2727,1.2727,1.2728,1.2729,1.273,1.2731,1.2734,1.2736,1.2739,1.2745,1.2745,1.2748,1.2749,1.275,1.275,1.2755,1.2756,1.2742,1.2742,1.2742,0,0,1.2716,1.2718,1.272,1.2724,1.2726,1.2729,1.2726,1.273,1.2732,1.2729,1.2734,1.2735,1.2737,1.2743,1.2745,1.2743,1.2755,1.2751,1.2751,1.2751,1.2755,1.2757,1.2758,1.2742,1.2742,1.2742,0,0,1.2722,1.2724,1.2728,1.273,1.2733,1.2734,1.2735,1.2737,1.2738,1.2743,1.2741,1.2745,1.275,1.2751,1.2753,1.2762,1.276,1.2763,1.2768,1.2772,1.2773,1.2774,1.2777,1.2779,1.2764,1.2764,1.2764,0,1.2724,1.273,1.273,1.2735,1.2737,1.2736,1.2741,1.2742,1.2746,1.2747,1.2745,1.2753,1.2754,1.276,1.2763,1.2764,1.2766,1.2762,1.2773,1.2774,1.2775,1.2778,1.2779,1.2764,1.2764,1.2764,1.2764,0,1.2733,1.2737,1.274,1.2745,1.2747,1.2752,1.2753,1.2756,1.2756,1.2757,1.2763,1.2764,1.2768,1.277,1.2769,1.2777,1.2775,1.2773,1.2769,1.2777,1.278,1.2781,1.2765,1.2764,1.2764,1.2764,0,0,1.2739,1.2745,1.2746,1.2749,1.2753,1.2756,1.2761,1.2765,1.2767,1.277,1.2775,1.278,1.2779,1.278,1.278,1.2784,1.2792,1.2782,1.2782,1.2783,1.2801,1.2802,1.2803,1.2791,1.2791,1.2791,1.2801,0,1.2745,1.2754,1.2755,1.2763,1.2767,1.2767,1.2772,1.2775,1.2776,1.278,1.2782,1.2786,1.2783,1.2785,1.2789,1.279,1.2795,1.2789,1.2795,1.2795,1.2793,1.2805,1.2806,1.2814,1.2802,1.2802,1.2802,0,1.2753,1.2758,1.2766,1.2771,1.2772,1.2776,1.2781,1.2785,1.2789,1.279,1.2793,1.2793,1.2798,1.2795,1.2803,1.2799,1.2801,1.2803,1.2803,1.2803,1.2798,1.2805,1.2817,1.2818,1.2804,1.2804,1.2804,0,1.2757,1.2765,1.2771,1.2773,1.2779,1.2782,1.2784,1.2788,1.2791,1.2795,1.2797,1.2802,1.2804,1.2808,1.281,1.2807,1.2817,1.2814,1.2818,1.2818,1.2819,1.2819,1.2832,1.2822,1.2822,1.2822,1.2822,0,1.2764,1.2769,1.2773,1.2777,1.2783,1.2785,1.2791,1.2793,1.2797,1.2801,1.2802,1.2806,1.2808,1.2812,1.2814,1.282,1.2821,1.2822,1.2822,1.2822,1.2822,1.2823,1.2822,1.2822,1.2822,1.2822,1.2822,0,1.2768,1.2771,1.2778,1.2784,1.2785,1.2789,1.2794,1.2798,1.28,1.2806,1.2807,1.2811,1.2816,1.2819,1.2825,1.2826,1.2834,1.2833,1.2832,1.2832,1.2836,1.2836,1.285,1.2852,1.2841,1.2841,1.2841,0,1.2772,1.2776,1.2782,1.2786,1.2788,1.2794,1.2797,1.28,1.2803,1.2809,1.2812,1.2818,1.2823,1.2832,1.2835,1.284,1.284,1.2845,1.2841,1.284,1.284,1.284,1.284,1.2845,1.2845,1.2845,1.2845,0,1.2778,1.278,1.2785,1.2791,1.2795,1.28,1.2805,1.2807,1.2811,1.2815,1.2821,1.2825,1.2832,1.2838,1.2844,1.2847,1.2847,1.2847,1.2848,1.2847,1.2846,1.2847,1.2834,1.2846,1.2846,1.2846,1.2846,1.2846,1.2782,1.2786,1.2792,1.2798,1.2802,1.2807,1.2811,1.2814,1.282,1.2826,1.2828,1.2834,1.2839,1.2848,1.2851,1.2856,1.2855,1.2856,1.2857,1.2857,1.2857,1.2846,1.2857,1.2857,1.2857,1.2857,1.2857,0,1.2789,1.2793,1.2798,1.2805,1.281,1.2811,1.2816,1.282,1.2826,1.2831,1.2837,1.2844,1.285,1.2855,1.2861,1.2864,1.2865,1.2866,1.2865,1.2866,1.2858,1.2856,1.2866,1.2866,1.2866,1.2866,1.2866,1.2866,1.2792,1.2799,1.2802,1.2812,1.2816,1.2822,1.2826,1.283,1.2834,1.2843,1.2848,1.2852,1.2857,1.2863,1.2869,1.2871,1.2873,1.2874,1.2875,1.2867,1.2866,1.2866,1.2864,1.2875,1.2875,1.2882,1.2882,1.2883]},{"header":{"parameterUnit":"m.s-1","parameterCategory":1,"la1":30.2991,"la2":30.254,"lo1":-89.0895,"lo2":-89.0444,"dy":0.0017,"dx":0.0017,"nx":28,"ny":28,"refTime":"2026-01-10T09:00:00:Z","depth":0,"parameterNumber":3,"parameterNumberName":"V-component_of_WINDS"},"data":[0,0,0,0,0,0,0,0,0,0,0,0,0,0,0,0,0,0,0,0,0,0,0,0,0,0,0,0,0,0,0,0,0,0,0,0,0,0,0,0,0,0,0,0,0,0,0,0,0,0,0,0,0,0,0,0,0,0,-8.6148,-8.615,0,-8.6333,-8.6335,-8.6338,-8.6251,-8.6247,-8.6242,-8.6238,-8.6422,-8.6431,-8.644,0,0,0,0,0,0,0,0,0,0,0,0,0,-8.5715,-8.5724,-8.6148,-8.615,-8.6153,-8.6333,-8.6336,-8.6338,-8.6252,-8.6246,-8.6241,-8.6236,-8.6419,-8.643,-8.6441,0,0,0,0,0,0,0,0,0,0,0,0,0,-8.5902,-8.5727,-8.6148,-8.6132,-8.6132,-8.6333,-8.6336,-8.6339,-8.6253,-8.6246,-8.6239,-8.6233,-8.6415,-8.6428,-8.6442,-8.6667,0,0,-8.6484,-8.6491,0,0,0,0,0,0,0,0,-8.5892,-8.5918,-8.6132,-8.6133,-8.6134,-8.6262,-8.625,-8.6449,-8.6255,-8.6207,-8.6238,-8.6229,-8.6374,-8.6391,-8.6441,-8.6676,-8.6684,-8.6486,-8.6494,-8.65,-8.6504,0,0,0,0,0,0,0,-8.5879,-8.591,-8.6221,-8.6135,-8.6136,-8.6114,-8.6133,-8.6288,-8.6327,-8.6211,-8.6205,-8.6228,-8.6373,-8.6427,-8.6444,-8.6687,-8.6485,-8.6498,-8.6506,-8.6512,-8.7117,-8.7124,0,0,0,0,0,0,-8.5867,-8.5899,-8.6215,-8.6227,-8.5993,-8.6127,-8.6148,-8.6228,-8.6325,-8.6334,-8.6234,-8.6224,-8.6407,-8.6428,-8.645,-8.6721,-8.65,-8.6513,-8.6521,-8.7109,-8.7118,-8.7127,0,0,0,0,0,0,-8.5858,-8.5896,-8.6208,-8.6062,-8.61,-8.6142,-8.6232,-8.6235,-8.629,-8.6343,-8.6349,-8.6283,-8.6403,-8.6431,-8.6615,-8.6726,-8.6519,-8.6532,-8.71,-8.7112,-8.7122,-8.7265,0,0,0,0,0,0,-8.5846,-8.5893,-8.598,-8.6064,-8.6108,-8.6371,-8.6239,-8.6244,-8.6314,-8.6303,-8.639,-8.6398,-8.6399,-8.6595,-8.6628,-8.6742,-8.6543,-8.709,-8.7105,-8.7119,-8.725,-8.728,-8.7305,0,0,0,0,0,-8.5831,-8.6012,-8.5985,-8.6024,-8.6218,-8.6378,-8.6402,-8.6402,-8.6324,-8.6411,-8.6446,-8.6395,-8.6709,-8.6614,-8.6652,-8.6771,-8.7083,-8.7101,-8.7118,-8.7238,-8.7274,-8.7304,0,0,0,0,0,0,-8.5938,-8.6022,-8.5994,-8.6208,-8.6287,-8.6363,-8.6473,-8.644,-8.654,-8.6525,-8.6518,-8.6538,-8.6729,-8.6768,-8.6661,-8.6994,-8.6884,-8.6909,-8.6962,-8.6997,-8.7024,-8.7011,-8.6554,0,0,0,0,0,-8.5986,-8.6111,-8.6177,-8.6359,-8.64,-8.643,-8.65,-8.6493,-8.6573,-8.6605,-8.6653,-8.6731,-8.6847,-8.6924,-8.7034,-8.7255,-8.7273,-8.7356,-8.7383,-8.7405,-8.7428,-8.7548,-8.7586,-8.7184,-8.7184,-8.7184,0,0,-8.6087,-8.6149,-8.6228,-8.6382,-8.6442,-8.657,-8.6459,-8.6598,-8.6692,-8.6625,-8.6803,-8.6841,-8.6928,-8.7132,-8.7224,-8.717,-8.7543,-8.7427,-8.7445,-8.7455,-8.757,-8.7608,-8.7642,-8.7196,-8.7194,-8.7192,0,0,-8.6338,-8.6397,-8.6556,-8.6619,-8.6712,-8.6731,-8.6769,-8.6852,-8.6875,-8.7053,-8.7006,-8.7117,-8.7317,-8.7382,-8.7441,-8.7717,-8.7674,-8.7752,-8.7896,-8.8013,-8.8045,-8.8073,-8.8172,-8.8208,-8.7774,-8.7775,-8.7775,0,-8.6451,-8.6644,-8.6641,-8.6785,-8.6855,-8.6802,-8.6963,-8.7023,-8.7147,-8.7195,-8.7133,-8.7385,-8.7439,-8.7658,-8.7726,-8.7775,-8.7818,-8.7742,-8.8041,-8.8069,-8.8095,-8.819,-8.8227,-8.7784,-8.7783,-8.7782,-8.7781,0,-8.6779,-8.6913,-8.703,-8.7154,-8.7236,-8.7387,-8.7406,-8.749,-8.7476,-8.7501,-8.7683,-8.7747,-8.7869,-8.792,-8.7907,-8.8138,-8.8102,-8.8041,-8.793,-8.8143,-8.8231,-8.8267,-8.7796,-8.7793,-8.7791,-8.7788,0,0,-8.7101,-8.7223,-8.7266,-8.7322,-8.7421,-8.7524,-8.7673,-8.7795,-8.7867,-8.7953,-8.8078,-8.8249,-8.8194,-8.8261,-8.8254,-8.8358,-8.8573,-8.8284,-8.8286,-8.8336,-8.8833,-8.8879,-8.8921,-8.8546,-8.8552,-8.8558,-8.8826,0,-8.7359,-8.7623,-8.7625,-8.7867,-8.7991,-8.7943,-8.8072,-8.8147,-8.8175,-8.8282,-8.8311,-8.8434,-8.8351,-8.8391,-8.8491,-8.8526,-8.8673,-8.8506,-8.8661,-8.8666,-8.8642,-8.8967,-8.9016,-8.9265,-8.886,-8.8866,-8.887,0,-8.7696,-8.7797,-8.8052,-8.8135,-8.8186,-8.8303,-8.8416,-8.852,-8.8603,-8.8615,-8.8692,-8.8669,-8.882,-8.8704,-8.8911,-8.8798,-8.886,-8.8887,-8.8897,-8.8911,-8.8782,-8.8991,-8.9345,-8.9383,-8.8925,-8.892,-8.8916,0,-8.7907,-8.8106,-8.8284,-8.8333,-8.8434,-8.8518,-8.8563,-8.864,-8.8713,-8.8811,-8.8858,-8.8971,-8.9033,-8.912,-8.9129,-8.9044,-8.9338,-8.9222,-8.9352,-8.9352,-8.9416,-8.9412,-8.9786,-8.9456,-8.9455,-8.9454,-8.9454,0,-8.8195,-8.8353,-8.8381,-8.8491,-8.8666,-8.8667,-8.884,-8.8878,-8.8947,-8.9062,-8.9026,-8.9135,-8.9139,-8.9251,-8.9258,-8.9428,-8.9456,-8.947,-8.947,-8.9474,-8.9473,-8.9516,-8.9499,-8.9464,-8.9462,-8.946,-8.9459,0,-8.8461,-8.8486,-8.8677,-8.8758,-8.8782,-8.8908,-8.8976,-8.908,-8.9104,-8.9251,-8.9285,-8.9323,-8.9452,-8.947,-8.9619,-8.9624,-8.983,-8.9811,-8.9803,-8.98,-8.993,-8.9918,-9.0344,-9.0401,-9.0033,-9.0037,-9.004,0,-8.8644,-8.8765,-8.8859,-8.8935,-8.8986,-8.9108,-8.9184,-8.9189,-8.9269,-8.9373,-8.9465,-8.9591,-8.9692,-8.99,-8.994,-9.0055,-9.0039,-9.0181,-9.0056,-9.0056,-9.0042,-9.0036,-9.0048,-9.0205,-9.0209,-9.0212,-9.0215,0,-8.8967,-8.8973,-8.9085,-8.9202,-8.9293,-8.9385,-8.947,-8.9534,-8.955,-8.9641,-8.9774,-8.9853,-9.0007,-9.0133,-9.0246,-9.0291,-9.0256,-9.0254,-9.029,-9.0296,-9.0287,-9.0294,-8.987,-9.0244,-9.0241,-9.0239,-9.0237,-9.0236,-8.9197,-8.9303,-8.9387,-8.9512,-8.9578,-8.9659,-8.9762,-8.98,-8.9912,-9.004,-9.0035,-9.0181,-9.0261,-9.0411,-9.0464,-9.0577,-9.053,-9.0582,-9.0596,-9.0609,-9.0623,-9.0268,-9.0597,-9.0596,-9.0596,-9.0595,-9.0594,0,-8.9519,-8.9571,-8.9686,-8.9809,-8.9908,-8.9868,-8.9961,-9.0046,-9.0176,-9.0255,-9.0356,-9.0509,-9.063,-9.068,-9.0799,-9.0881,-9.0868,-9.0912,-9.0906,-9.0917,-9.0657,-9.0614,-9.0921,-9.092,-9.092,-9.092,-9.092,-9.092,-8.9698,-8.9875,-8.9892,-9.0102,-9.0151,-9.0297,-9.0353,-9.0428,-9.0491,-9.0664,-9.0766,-9.0799,-9.0866,-9.099,-9.1099,-9.111,-9.1156,-9.1208,-9.1212,-9.0968,-9.0935,-9.0904,-9.0864,-9.1218,-9.1218,-9.1463,-9.1466,-9.1467]}]]